• Join FlightAware (Why Join?)
  • Login
  • US Flag 
11:48PM EDT


 

Airport Tracker/Info


-or-


 

Live Flight TrackerFlight Track Log ✈ UAL3821 ✈ 30-Apr-2013 ✈ KEWR - KMKE

Flight Track Log - Related Links

Times and Time Zones

All times are in EDT time to prevent confusion due to time zone crossing. See the UAL3821 flight status page for this flight to view local times or setup timezone preferences in your user account.

Time Position Orientation Groundspeed Altitude Reporting Facility
EDT Latitude Longitude Course Direction KTS MPH feet Rate Location/Type
10:53AM 40.7000 -74.1500 316° Northwest 152 175 800  Level New York TRACON
10:54AM 40.7333 -74.1333 21° North 216 249 2,700 2,100 Climbing New York TRACON
10:55AM 40.7667 -74.2333 294° West 272 313 5,000 2,520 Climbing New York TRACON
10:56AM 40.9139 -74.4349 319° Northwest  Level FlightAware Approximate
10:56AM 40.7833 -74.3167 285° West 278 320 7,800  Level New York TRACON
10:57AM 40.9921 -74.5242 319° Northwest  Level FlightAware Approximate
10:57AM 40.8500 -74.3500 339° North 280 322 9,900  Level New York TRACON
10:58AM 41.0667 -74.6189 316° Northwest  Level FlightAware Approximate
10:58AM 40.9333 -74.3833 343° North 332 382 10,600  Level New York TRACON
10:59AM 40.9800 -74.4239 327° Northwest 361 415 11,300 1,320 Climbing New York Center
11:00AM 41.0436 -74.5264 309° West 380 437 12,700 1,380 Climbing New York Center
11:01AM 41.1047 -74.6344 307° West 380 437 14,100 1,320 Climbing New York Center
11:02AM 41.1553 -74.7364 303° West 371 427 15,400 1,320 Climbing New York Center
11:03AM 41.2133 -74.8694 300° West 371 427 16,800 1,140 Climbing New York Center
11:04AM 41.2653 -74.9886 300° West 371 427 17,800 1,200 Climbing New York Center
11:05AM 41.3153 -75.1078 299° West 376 433 19,200 1,200 Climbing New York Center
11:06AM 41.3669 -75.2300 299° West 376 433 20,300 1,020 Climbing New York Center
11:07AM 41.4206 -75.3553 300° West 382 440 21,300 960 Climbing New York Center
11:08AM 41.4739 -75.4833 299° West 387 445 22,300 900 Climbing New York Center
11:09AM 41.5161 -75.6194 293° West 392 451 23,200 900 Climbing New York Center
11:10AM 41.5542 -75.7553 291° West 392 451 24,200 960 Climbing New York Center
11:11AM 41.5942 -75.8969 291° West 398 458 25,100 900 Climbing New York Center
11:12AM 41.6339 -76.0331 291° West 398 458 26,000 960 Climbing New York Center
11:13AM 41.6714 -76.1722 290° West 398 458 27,100 1,200 Climbing New York Center
11:14AM 41.7089 -76.3058 291° West 398 458 28,400 1,260 Climbing New York Center
11:15AM 41.7464 -76.4394 291° West 398 458 29,700 1,200 Climbing New York Center
11:16AM 41.7783 -76.5564 290° West 388 447 30,900 1,200 Climbing New York Center
11:17AM 41.8136 -76.6847 290° West 381 438 32,200 1,320 Climbing New York Center
11:18AM 41.8528 -76.8189 291° West 381 438 33,600 1,260 Climbing New York Center
11:19AM 41.8878 -76.9475 290° West 381 438 34,800 1,200 Climbing New York Center
11:19AM 41.9233 -77.0806 290° West 382 440 35,900 600 Climbing Cleveland Center
11:20AM 41.9583 -77.2100 290° West 382 440 36,000  Climbing Cleveland Center
11:21AM 41.9981 -77.3531 291° West 389 448 36,000  Level Cleveland Center
11:22AM 42.0353 -77.4967 289° West 403 464 36,000  Level Cleveland Center
11:23AM 42.0700 -77.6319 289° West 398 458 36,000 -120 Level Cleveland Center
11:24AM 42.1069 -77.7675 290° West 398 458 35,800 -600 Descending Cleveland Center
11:25AM 42.1436 -77.9086 289° West 398 458 34,800 -1,080 Descending Cleveland Center
11:26AM 42.1822 -78.0472 291° West 398 458 33,700 -1,080 Descending Cleveland Center
11:27AM 42.2142 -78.1833 288° West 398 458 32,700 -1,020 Descending Cleveland Center
11:28AM 42.2506 -78.3222 290° West 398 458 31,700 -1,020 Descending Cleveland Center
11:29AM 42.2886 -78.4639 290° West 403 464 30,700 -1,080 Descending Cleveland Center
11:30AM 42.3267 -78.6117 289° West 408 470 29,600 -1,080 Descending Cleveland Center
11:31AM 42.3625 -78.7594 288° West 408 470 28,600 -840 Descending Cleveland Center
11:32AM 42.3933 -78.8767 290° West 413 475 28,000 -300 Descending Cleveland Center
11:33AM 42.4311 -79.0389 288° West 413 475 28,000  Level Cleveland Center
11:34AM 42.4750 -79.2011 290° West 413 475 28,000  Level Cleveland Center
11:35AM 42.4953 -79.3442 281° West 403 464 28,000  Level Cleveland Center
11:36AM 42.5031 -79.4878 274° West 393 452 28,000  Level Cleveland Center
11:37AM 42.5106 -79.6311 274° West 386 444 28,000  Level Cleveland Center
11:38AM 42.5158 -79.7775 273° West 386 444 28,000  Level Cleveland Center
11:39AM 42.5250 -79.9239 275° West 386 444 28,000  Level Cleveland Center
11:40AM 42.5278 -80.0592 272° West 386 444 28,000  Level Cleveland Center
11:41AM 42.5347 -80.2028 274° West 391 450 28,000  Level Cleveland Center
11:42AM 42.5392 -80.3494 272° West 391 450 28,000  Level Cleveland Center
11:43AM 42.5456 -80.4986 273° West 386 444 28,000  Level Cleveland Center
11:44AM 42.5519 -80.6453 273° West 386 444 28,000  Level Cleveland Center
11:45AM 42.5558 -80.7861 272° West 386 444 28,000  Level Cleveland Center
11:46AM 42.5617 -80.9356 273° West 386 444 28,000  Level Cleveland Center
11:47AM 42.5675 -81.0964 273° West 386 444 28,000  Level Cleveland Center
11:48AM 42.5731 -81.2431 273° West 386 444 28,000  Level Cleveland Center
11:49AM 42.5761 -81.3925 272° West 393 452 28,000  Level Cleveland Center
11:50AM 42.5981 -81.5422 281° West 398 458 28,000  Level Cleveland Center
11:51AM 42.6239 -81.6808 284° West 397 457 28,000  Level Cleveland Center
11:52AM 42.6453 -81.8081 283° West 389 448 28,000  Level Cleveland Center
11:53AM 42.6708 -81.9528 284° West 389 448 28,000  Level Cleveland Center
11:54AM 42.6942 -82.0917 283° West 389 448 28,000  Level Cleveland Center
11:55AM 42.7194 -82.2336 284° West 389 448 28,000  Level Cleveland Center
11:56AM 42.7422 -82.3783 282° West 394 453 28,000  Level Cleveland Center
11:57AM 42.7669 -82.5206 283° West 394 453 28,000  Level Cleveland Center
11:58AM 42.7914 -82.6656 283° West 394 453 28,000  Level Cleveland Center
11:59AM 42.8158 -82.8106 283° West 394 453 28,000  Level Cleveland Center
12:00PM 42.8381 -82.9589 282° West 394 453 28,000  Level Cleveland Center
12:01PM 42.8639 -83.1100 283° West 394 453 28,000  Level Cleveland Center
12:02PM 42.8878 -83.2553 283° West 399 459 28,000  Level Cleveland Center
12:03PM 42.9111 -83.4067 282° West 404 465 28,000  Level Cleveland Center
12:04PM 42.9367 -83.5611 283° West 409 471 28,000  Level Cleveland Center
12:05PM 42.9594 -83.7153 281° West 415 478 28,000  Level Cleveland Center
12:06PM 42.9761 -83.8694 278° West 415 478 28,000  Level Cleveland Center
12:07PM 42.9922 -84.0292 278° West 415 478 28,000  Level Cleveland Center
12:08PM 43.0083 -84.1892 278° West 415 478 28,000  Level Cleveland Center
12:09PM 43.0219 -84.3461 277° West 420 483 28,000  Level Cleveland Center
12:11PM 43.0383 -84.5039 278° West 424 488 28,000  Level Chicago Center
12:12PM 43.0553 -84.6939 277° West 422 486 28,000  Level Chicago Center
12:13PM 43.0700 -84.8511 277° West 420 483 28,000  Level Chicago Center
12:14PM 43.0839 -85.0058 277° West 412 474 28,000  Level Chicago Center
12:15PM 43.0931 -85.1614 275° West 412 474 28,000  Level Chicago Center
12:16PM 43.0989 -85.3189 273° West 416 479 28,000 -240 Level Chicago Center
12:17PM 43.1044 -85.4733 273° West 410 472 27,600 -540 Descending Chicago Center
12:18PM 43.1111 -85.6556 273° West 401 461 26,900 -600 Descending Chicago Center
12:19PM 43.1172 -85.8092 273° West 407 468 26,400 -540 Descending Chicago Center
12:20PM 43.1228 -85.9650 273° West 421 484 25,800 -540 Descending Chicago Center
12:21PM 43.1281 -86.1217 273° West 427 491 25,300 -1,080 Descending Chicago Center
12:22PM 43.1331 -86.3122 272° West 417 480 23,600 -1,860 Descending Chicago Center
12:23PM 43.1378 -86.4617 273° West 405 466 21,500 -1,980 Descending Chicago Center
12:24PM 43.1411 -86.6053 272° West 384 442 19,600 -1,980 Descending Chicago Center
12:25PM 43.1456 -86.7467 273° West 376 433 17,500 -2,040 Descending Chicago Center
12:26PM 43.1483 -86.8792 272° West 354 407 15,500 -2,040 Descending Chicago Center
12:27PM 43.1522 -87.0328 272° West 339 390 13,400 -1,800 Descending Chicago Center
12:28PM 43.1483 -87.1603 268° West 337 388 11,800 -1,500 Descending Chicago Center
12:29PM 43.1447 -87.2769 268° West 307 353 10,400 -1,380 Descending Chicago Center
12:30PM 43.1436 -87.3839 269° West 256 295 9,000 -1,380 Descending Chicago Center
12:31PM 43.1464 -87.4783 272° West 250 288 7,600 -1,020 Descending Chicago Center
12:32PM 43.1486 -87.5706 272° West 243 280 7,000 -420 Descending Chicago Center
12:33PM 43.1503 -87.6506 272° West 215 247 6,800 -720 Descending Chicago Center
12:34PM 43.1242 -87.7172 242° Southwest 203 234 5,600 -1,200 Descending Chicago Center
12:35PM 43.1003 -87.7789 242° Southwest 190 219 4,400 -1,020 Descending Chicago Center
12:36PM 43.0756 -87.8361 239° Southwest 158 182 3,500 -780 Descending Chicago Center
12:37PM 43.0514 -87.8742 229° Southwest 153 176 2,800 -840 Descending Chicago Center
12:38PM 43.0333 -87.8833 200° South 143 165 2,100 -1,080 Descending KMKE